Onalaska, WI

2:43 AM CST on January 22, 2017 (GMT -0600)
La Crosse Municipal

Weather History for KLSE - August, 2014

Change the Weather History Date:

Tuesday, August 5, 2014

  Actual Average Record
Temperature  
Mean Temperature 71 °F 73 °F  
Max Temperature 79 °F 83 °F 96 °F (2001)
Min Temperature 63 °F 62 °F 46 °F (1994)
Degree Days  
Heating Degree Days 0 0  
Month to date heating degree days 0 0  
Since 1 July heating degree days 3 5  
Cooling Degree Days 6 8  
Month to date cooling degree days 47 40  
Year to date cooling degree days 526 527  
Growing Degree Days 21 (Base 50)    
Moisture  
Dew Point 63 °F    
Average Humidity 79    
Maximum Humidity 100    
Minimum Humidity 58    
Precipitation  
Precipitation 0.00 in 0.15 in 2.61 in (1935)
Month to date precipitation 0.61 0.72  
Year to date precipitation 25.47 20.39  
Snow  
Snow 0.00 in 0.00 in 0.00 in (2002)
Month to date snowfall 0.0 0.0  
Since 1 July snowfall 0.0 0.0  
Snow Depth 0.00 in    
Sea Level Pressure  
Sea Level Pressure 30.05 in    
Wind  
Wind Speed 3 mph (ESE)    
Max Wind Speed 9 mph    
Max Gust Speed 12 mph    
Visibility 7 miles    
Events Fog    
T = Trace of Precipitation, MM = Missing Value Source: NWS Daily Summary

Daily Weather History Graph

Daily Weather History Graph

Search for Another Location

Airport or City:

Trip Planner

Search our weather history database for the weather conditions in past years. The results will help you decide how hot, cold, wet, or windy it might be!

Date:

Astronomy

Aug. 05, 2014 Rise Set
Actual Time 5:57 AM CDT 8:23 PM CDT
Civil Twilight 5:25 AM CDT 8:55 PM CDT
Nautical Twilight 4:45 AM CDT 9:35 PM CDT
Astronomical Twilight 3:59 AM CDT 10:20 PM CDT
Moon 3:39 PM CDT (8/5) 12:46 AM CDT (8/5)
Length of Visible Light 15h 30m
Length of Day
14h 25m
Waxing Gibbous, 68% of the Moon is Illuminated
Aug 5
Waxing Gibbous
Aug 10
Full
Aug 17
Last Quarter
Aug 25
New
Sep 2
First Quarter

Hourly Weather History & Observations

Time (CDT) Temp. Dew Point Humidity Pressure Visibility Wind Dir Wind Speed Gust Speed Precip Events Conditions
12:12 AM 66.0 °F 64.0 °F 93% 30.05 in 0.8 mi Calm Calm - N/A   Overcast
12:24 AM 66.0 °F 64.0 °F 93% 30.05 in 0.8 mi ESE 4.6 mph - N/A   Mist
12:45 AM 66.0 °F 64.0 °F 93% 30.05 in 0.2 mi Calm Calm - N/A Fog Fog
12:53 AM 66.0 °F 64.0 °F 93% 30.02 in 0.2 mi SE 3.5 mph - N/A Fog Fog
1:10 AM 66.0 °F 64.0 °F 93% 30.05 in 0.5 mi ESE 3.5 mph - N/A Fog Fog
1:51 AM 64.4 °F 64.4 °F 100% 30.05 in 2.0 mi ESE 5.8 mph - N/A   Overcast
1:52 AM 64.9 °F 64.0 °F 97% 30.04 in 2.5 mi ESE 5.8 mph - N/A   Overcast
1:59 AM 64.9 °F 64.0 °F 97% 30.05 in 3.0 mi ESE 5.8 mph - N/A   Overcast
2:03 AM 64.9 °F 64.0 °F 97% 30.05 in 1.8 mi ESE 4.6 mph - N/A   Overcast
2:25 AM 66.0 °F 64.0 °F 93% 30.04 in 2.5 mi East 4.6 mph - N/A   Overcast
2:34 AM 64.9 °F 64.0 °F 97% 30.04 in 1.2 mi East 5.8 mph - N/A   Overcast
2:53 AM 64.9 °F 64.0 °F 97% 30.03 in 1.2 mi ESE 5.8 mph - N/A   Overcast
3:00 AM 64.9 °F 64.0 °F 97% 30.05 in 3.0 mi ESE 5.8 mph - N/A   Overcast
3:18 AM 64.9 °F 64.0 °F 97% 30.05 in 7.0 mi East 3.5 mph - N/A   Overcast
3:53 AM 66.0 °F 64.0 °F 93% 30.03 in 10.0 mi NE 3.5 mph - N/A   Overcast
4:35 AM 66.0 °F 63.0 °F 90% 30.04 in 10.0 mi East 3.5 mph - N/A   Overcast
4:50 AM 64.4 °F 62.6 °F 94% 30.04 in 10.0 mi ESE 4.6 mph - N/A   Overcast
5:01 AM 66.0 °F 63.0 °F 90% 30.04 in 10.0 mi ESE 4.6 mph - N/A   Overcast
5:53 AM 64.9 °F 63.0 °F 93% 30.04 in 10.0 mi East 3.5 mph - N/A   Overcast
6:21 AM 66.0 °F 63.0 °F 90% 30.07 in 10.0 mi Calm Calm - N/A   Overcast
6:53 AM 66.9 °F 64.0 °F 90% 30.05 in 9.0 mi Calm Calm - N/A   Mostly Cloudy
7:12 AM 66.0 °F 63.0 °F 90% 30.07 in 9.0 mi East 5.8 mph - N/A   Mostly Cloudy
7:53 AM 66.0 °F 63.0 °F 90% 30.07 in 10.0 mi East 4.6 mph - N/A   Overcast
8:53 AM 68.0 °F 63.0 °F 84% 30.08 in 10.0 mi North - - N/A   Overcast
9:45 AM 68.0 °F 63.0 °F 84% 30.10 in 10.0 mi ESE 4.6 mph - N/A   Overcast
9:53 AM 69.1 °F 64.0 °F 84% 30.09 in 10.0 mi ESE 5.8 mph - N/A   Overcast
10:53 AM 70.0 °F 63.0 °F 78% 30.09 in 10.0 mi ESE 6.9 mph - N/A   Overcast
11:53 AM 72.0 °F 63.0 °F 73% 30.09 in 10.0 mi East 5.8 mph - N/A   Overcast
12:53 PM 73.0 °F 63.0 °F 71% 30.08 in 10.0 mi East 3.5 mph - N/A   Overcast
1:42 PM 73.0 °F 63.0 °F 71% 30.10 in 10.0 mi Calm Calm - N/A   Overcast
1:53 PM 73.9 °F 62.1 °F 66% 30.07 in 10.0 mi NE 3.5 mph - N/A   Overcast
2:53 PM 77.0 °F 63.0 °F 62% 30.06 in 10.0 mi Calm Calm - N/A   Mostly Cloudy
3:53 PM 78.1 °F 62.1 °F 58% 30.05 in 10.0 mi Variable 3.5 mph - N/A   Mostly Cloudy
4:53 PM 77.0 °F 62.1 °F 60% 30.04 in 10.0 mi SE 3.5 mph - N/A   Scattered Clouds
5:53 PM 78.1 °F 64.0 °F 62% 30.04 in 10.0 mi WSW 4.6 mph - N/A   Mostly Cloudy
6:53 PM 78.1 °F 63.0 °F 60% 30.04 in 10.0 mi North - - N/A   Scattered Clouds
7:53 PM 75.9 °F 63.0 °F 64% 30.04 in 10.0 mi Calm Calm - N/A   Clear
8:53 PM 70.0 °F 64.9 °F 84% 30.04 in 10.0 mi NNE 3.5 mph - N/A   Clear
9:53 PM 69.1 °F 64.9 °F 87% 30.05 in 8.0 mi Calm Calm - N/A   Clear
10:53 PM 66.9 °F 63.0 °F 87% 30.06 in 7.0 mi ESE 3.5 mph - N/A   Clear
11:53 PM 66.9 °F 63.0 °F 87% 30.06 in 6.0 mi Calm Calm - N/A   Clear